Lapse_Rate
4.6 4.6 4.5 4.2 4.3 4.1 3.9 3.4 3.2 2.7 2.3 2.0 2.0 2.0 1.9 1.6 1.8 5.9 6.0 4.2 4.0 3.6 3.1 6.5 7.4 8.2 8.5 8.1 8.2 8.1 6.5 6.5 6.5 6.5 6.5 7.1 6.6 7.6 8.0 7.4 7.7 8.0 8.0 8.4 9.0
4.4 4.5 4.7 4.4 4.2 3.9 3.8 3.5 3.1 3.0 2.9 2.7 2.3 1.9 1.7 1.4 4.8 6.9 3.5 3.0 2.9 3.2 4.6 7.3 8.1 8.3 7.7 7.6 7.6 6.7 6.5 6.5 6.5 6.5 6.5 6.8 6.8 7.1 7.0 7.0 7.1 7.6 8.3 8.7 8.9
5.1 4.6 4.9 5.0 5.0 4.7 4.5 4.3 3.7 3.2 2.9 2.7 2.4 1.9 1.5 1.6 7.2 8.1 3.0 2.9 2.8 2.7 4.0 5.3 6.0 8.0 7.1 7.5 7.2 6.8 6.5 6.5 6.7 7.1 7.2 6.8 6.8 7.5 6.8 6.5 7.1 7.1 7.8 8.4 8.5
5.7 5.7 6.1 5.0 4.5 5.0 4.6 4.3 3.9 3.6 2.8 1.9 1.8 1.9 1.1 4.3 6.5 5.8 3.5 3.0 2.7 3.3 4.5 6.7 7.7 7.2 6.6 6.5 7.3 6.5 6.8 6.9 7.0 7.3 7.1 6.6 7.3 6.9 7.1 7.1 8.0 8.1 8.3 8.4 8.3
6.3 6.8 6.0 5.2 5.1 4.7 4.5 4.3 3.7 3.6 3.3 1.9 1.5 1.1 4.2 7.6 7.7 5.1 4.1 4.9 4.7 4.5 4.1 6.7 7.5 7.2 6.5 6.6 6.9 6.5 6.5 7.1 7.3 7.3 7.2 7.4 6.8 6.8 7.1 7.9 8.3 8.3 8.3 8.2 8.3
4.6 4.6 4.3 4.7 4.7 5.1 5.1 4.9 4.3 3.7 3.0 2.1 1.7 1.3 5.7 6.8 5.8 5.6 5.4 6.4 5.7 5.9 4.8 5.8 7.6 7.6 7.1 6.7 6.6 6.9 6.8 6.8 7.1 7.1 7.2 6.7 6.7 7.0 7.3 8.0 7.9 8.0 8.0 8.2 8.2
4.0 4.1 3.1 3.5 4.6 4.6 4.5 4.4 3.9 3.4 3.1 2.3 2.1 4.8 6.6 7.6 6.3 6.1 6.5 5.9 5.7 5.9 6.4 4.3 5.2 7.7 7.5 6.5 7.5 7.0 6.5 6.5 6.7 6.9 6.6 7.2 6.5 6.5 7.5 7.8 7.6 7.7 7.9 8.1 8.3
3.4 3.6 3.6 3.5 3.2 3.3 3.2 3.3 3.3 3.0 3.0 2.7 2.7 6.1 7.6 5.8 6.0 6.8 7.3 7.3 6.6 6.5 5.9 5.0 5.7 7.3 7.4 7.6 6.9 6.5 6.5 6.5 6.5 6.6 6.8 6.8 6.5 6.5 7.6 7.4 7.3 7.5 7.7 7.9 8.1
2.8 2.6 3.1 3.0 2.9 3.1 3.2 3.1 3.1 2.7 3.1 3.6 5.9 7.6 7.2 5.9 7.6 6.8 7.0 7.3 6.8 6.7 6.5 6.6 6.5 7.4 7.2 6.5 6.5 6.5 6.5 6.5 6.5 6.7 6.5 6.5 6.5 6.5 7.5 7.3 7.2 7.4 7.6 7.8 8.0
2.4 2.4 2.4 2.4 2.6 3.6 3.4 3.4 3.3 3.0 4.7 6.2 7.7 7.4 7.4 7.7 7.1 6.4 6.9 6.6 7.9 8.1 7.7 7.6 7.3 6.5 6.5 6.5 6.5 6.5 6.5 6.5 6.5 6.5 6.5 6.5 6.5 6.5 7.2 7.2 7.1 7.3 7.6 7.7 7.8
2.4 2.0 1.8 2.1 3.1 4.5 4.7 7.1 7.9 7.6 8.5 7.6 7.6 7.6 8.0 8.7 7.5 7.7 6.9 6.9 8.2 7.7 6.5 7.0 6.5 6.5 6.5 6.5 6.5 6.5 6.5 6.5 6.5 6.5 6.5 6.5 6.5 6.5 6.8 6.9 6.9 7.2 7.4 7.5 7.7
2.3 2.1 1.9 2.1 3.7 4.6 7.0 8.4 7.3 6.9 7.1 7.3 7.2 7.5 7.7 7.3 7.5 8.1 7.3 7.3 7.0 6.5 6.6 6.5 6.5 6.5 6.5 6.5 6.5 6.5 6.5 6.5 6.5 6.5 6.5 6.5 6.5 6.5 6.5 6.7 7.0 7.1 7.3 7.4 7.7
2.5 2.2 2.2 2.5 4.7 6.8 7.7 6.7 6.6 7.1 7.1 7.3 8.0 7.9 8.0 8.1 7.3 7.4 7.6 7.6 6.6 6.5 6.5 6.5 6.5 6.5 6.5 6.5 6.5 6.5 6.5 6.5 6.5 6.5 6.5 6.5 6.5 6.5 6.5 6.9 7.2 7.4 7.5 7.7 7.7
2.9 2.9 2.7 3.9 5.9 7.8 8.4 7.0 6.6 7.4 6.5 6.5 6.8 7.6 8.1 8.1 6.8 8.4 8.5 7.5 6.6 6.5 6.5 6.5 6.6 6.5 6.5 6.5 6.5 6.5 6.5 6.5 6.5 6.5 6.5 6.5 6.5 6.5 6.5 6.5 6.5 7.0 7.3 7.5 7.7
3.6 4.8 4.8 4.5 7.6 8.6 7.1 6.8 6.7 8.1 6.5 6.5 6.7 8.3 8.2 7.1 7.3 7.3 7.9 7.7 6.5 6.5 6.5 6.5 6.5 6.5 6.5 6.5 6.5 6.5 6.5 6.5 6.5 6.5 6.5 6.5 6.5 6.5 6.5 6.5 6.5 6.7 7.2 7.6 7.9
4.8 5.6 6.2 7.8 8.5 8.2 7.0 6.8 7.4 6.5 6.5 6.5 6.8 6.6 6.5 7.0 6.9 7.5 7.4 8.0 7.6 6.5 6.5 6.5 7.1 6.5 6.5 6.5 6.5 6.5 6.5 6.5 6.5 6.5 6.5 6.5 6.5 6.5 6.5 6.5 6.5 6.7 7.2 7.5 7.9
5.5 5.8 7.1 9.0 7.9 7.8 6.8 8.1 6.5 6.5 6.5 6.5 6.5 6.5 6.5 6.5 6.5 6.5 6.5 6.5 6.5 6.5 6.5 6.5 6.5 6.5 6.7 6.5 6.5 6.5 6.5 6.5 6.5 6.5 6.5 6.5 6.5 6.5 6.5 6.5 6.5 6.6 7.1 7.6 7.9
6.2 6.3 7.4 8.7 8.0 7.6 7.9 6.6 6.5 6.5 6.5 6.5 6.5 6.5 6.5 6.5 6.5 6.5 6.5 6.5 6.5 6.5 6.5 6.5 6.5 6.5 6.5 6.5 6.5 6.5 6.5 6.5 6.5 6.5 6.5 6.5 6.5 6.5 6.5 6.9 7.2 7.2 7.4 7.6 7.8
6.4 8.4 9.1 7.8 7.4 7.8 7.7 6.5 6.5 6.5 6.5 6.5 6.5 6.5 6.5 6.5 6.5 6.5 6.5 6.5 6.5 6.5 6.5 6.5 6.5 6.5 6.5 6.5 6.5 6.5 6.5 6.5 6.5 6.5 6.5 6.5 6.5 6.5 6.5 6.5 6.7 7.0 7.2 7.3 7.6
9.0 8.8 8.6 7.2 7.3 7.6 6.7 6.5 6.5 6.6 6.6 6.5 6.5 6.5 6.5 6.5 6.5 6.5 6.5 6.5 6.5 6.5 6.7 6.5 6.5 6.5 6.5 6.6 6.6 6.5 6.5 6.5 6.5 6.5 6.5 6.5 6.5 6.5 6.5 6.5 6.5 6.6 6.9 7.3 7.7
8.7 7.7 7.9 7.1 8.0 7.5 6.5 6.5 6.5 7.1 7.0 6.5 6.5 6.5 6.5 6.5 6.5 6.5 6.5 6.5 6.5 6.5 6.7 6.5 6.5 6.5 6.5 6.5 6.5 6.5 6.5 6.5 6.5 6.5 6.5 6.5 6.5 6.5 6.5 6.5 6.5 6.6 7.1 7.4 7.6
8.5 6.6 7.8 7.5 6.8 6.8 6.5 6.5 6.9 6.7 7.3 6.6 6.6 6.5 6.5 6.5 6.5 6.5 6.5 6.5 7.1 6.7 6.5 6.5 6.5 6.5 6.5 6.5 6.5 6.5 6.5 6.5 6.5 6.5 6.5 6.5 6.5 6.5 6.5 6.5 6.8 6.9 7.2 7.6 7.7
7.7 7.6 7.9 7.5 6.5 6.5 6.6 6.5 6.8 6.5 6.5 6.5 6.5 6.5 6.5 6.5 6.5 6.5 6.5 6.8 7.1 6.5 6.5 6.5 6.5 6.5 6.5 6.5 6.5 6.5 6.5 6.5 6.5 6.5 6.5 6.5 6.5 6.5 6.6 6.6 7.0 7.0 7.3 7.6 7.8
7.9 6.5 7.2 7.6 7.0 6.6 6.5 6.5 6.5 7.1 6.7 6.8 6.5 6.7 6.5 6.5 6.5 6.5 6.5 6.5 7.1 6.8 6.9 6.8 6.5 6.5 6.5 6.5 6.5 6.5 6.5 6.5 6.5 6.5 6.5 6.5 6.5 6.5 6.5 6.5 6.7 7.0 7.3 7.6 7.7
8.0 6.8 7.4 6.5 6.6 6.6 6.6 6.5 6.5 6.5 6.8 7.0 6.5 6.5 6.5 6.5 6.5 6.5 6.5 6.5 6.7 6.9 6.7 6.5 6.5 6.5 6.5 6.5 6.5 6.5 6.5 6.5 6.5 6.5 6.5 6.5 6.5 6.5 6.5 6.5 6.8 7.2 7.4 7.4 7.6
7.4 7.1 7.7 6.9 7.1 6.6 6.5 6.5 6.5 6.5 6.5 6.5 6.5 6.5 6.5 6.5 6.5 6.5 6.5 6.5 6.5 6.5 6.5 6.5 6.5 6.5 6.5 6.5 6.5 6.5 6.5 6.5 6.5 6.5 6.5 6.5 6.5 6.5 6.8 7.1 7.0 7.1 7.3 7.3 7.5
8.2 7.7 7.8 6.9 6.6 6.5 6.5 6.5 6.5 6.6 6.8 6.8 6.6 6.5 6.5 6.5 7.1 7.2 7.3 7.1 6.8 6.5 6.5 6.5 6.5 6.5 6.5 6.5 6.5 6.5 6.5 6.5 6.5 6.5 6.5 6.5 6.5 6.5 6.5 6.6 6.9 7.1 7.3 7.4 7.6
Wind_Speed
16 18 19 20 21 22 23 23 23 21 21 22 23 23 23 24 21 5 1 7 10 19 18 8 6 2 2 2 2 1 4 3 3 3 5 3 1 3 1 5 1 3 5 5 5
13 15 17 18 19 21 23 24 23 23 22 21 20 21 23 24 13 4 3 8 13 15 10 6 3 3 1 1 0 3 2 3 3 4 3 2 1 3 3 4 4 4 4 3 4
15 15 15 17 20 22 23 24 25 24 23 23 20 19 20 21 9 2 5 10 11 10 5 5 4 5 2 1 2 2 2 6 4 4 2 0 4 2 4 4 0 4 5 6 8
15 16 18 19 19 20 21 22 24 25 25 23 19 17 17 5 5 4 11 11 7 7 3 5 4 4 2 2 1 4 3 2 4 2 1 2 4 4 7 4 1 4 7 9 9
16 17 19 21 21 21 23 24 25 26 26 20 14 11 6 4 3 7 12 10 5 1 4 3 4 2 2 4 2 4 4 3 2 1 3 4 5 7 10 8 5 4 8 9 8
15 16 17 20 23 21 24 26 26 25 21 13 10 13 3 7 3 7 10 8 9 5 6 5 2 2 5 2 2 3 3 2 1 0 3 4 6 3 5 5 4 8 7 4 4
15 16 15 18 22 23 24 26 26 24 14 9 7 6 5 4 3 6 7 6 8 7 2 4 2 3 2 4 3 3 3 3 5 1 2 7 5 8 4 4 7 8 3 2 2
14 16 18 20 23 23 26 28 27 23 9 7 8 6 5 1 2 2 5 3 4 5 3 1 4 5 2 5 3 3 3 4 6 2 3 4 5 6 6 4 10 6 4 4 2
14 14 17 20 24 27 27 30 26 9 6 7 6 4 2 3 2 2 5 5 4 2 2 2 0 2 3 3 1 6 5 7 5 1 3 5 5 4 7 11 9 6 6 4 3
14 16 18 19 23 27 31 28 6 5 5 5 5 5 4 0 1 1 1 3 3 3 3 4 3 4 4 5 4 6 7 3 5 4 5 9 14 8 10 11 7 5 6 4 3
13 14 17 20 22 25 21 6 3 3 2 6 8 6 4 4 2 1 1 1 3 5 5 2 4 8 12 9 4 3 4 5 2 2 5 5 15 13 9 3 5 6 6 3 2
10 13 17 18 18 23 11 4 4 4 9 1 5 6 4 3 4 1 2 3 4 7 3 4 9 6 7 6 5 4 4 6 2 1 4 8 18 13 3 4 3 5 4 2 1
8 13 16 16 16 9 4 5 3 2 6 2 2 3 2 2 3 1 2 1 5 7 9 11 3 5 7 7 7 6 7 2 2 5 3 9 10 6 4 4 4 3 0 1 2
8 12 15 20 9 4 2 4 4 3 4 5 1 3 1 3 3 2 2 1 2 5 5 8 6 8 6 7 7 5 3 2 2 4 2 3 4 8 8 7 6 8 5 5 5
8 12 14 10 4 1 3 6 3 3 6 2 2 2 1 3 4 2 2 3 4 3 3 2 7 9 8 4 8 2 4 2 2 0 2 6 3 5 8 10 8 7 6 7 7
9 10 13 5 2 3 5 7 4 2 5 3 2 2 3 2 1 0 2 2 1 2 4 3 2 4 2 4 1 10 5 4 3 3 3 5 4 4 9 10 8 4 2 9 14
8 7 9 5 2 5 6 3 2 4 3 3 3 2 4 2 3 3 3 5 3 3 7 4 5 2 5 6 4 6 4 2 3 2 1 5 4 8 8 6 5 5 9 14 15
7 7 2 4 4 5 2 3 6 1 4 2 3 6 4 1 2 2 3 3 7 5 4 6 4 9 8 5 3 11 3 3 4 3 1 4 6 3 12 7 8 4 13 14 15
5 2 2 1 4 3 4 3 3 2 3 6 7 5 2 1 4 3 5 4 0 9 4 3 2 2 2 1 3 5 5 2 2 1 2 5 4 6 8 7 8 12 14 14 15
2 1 1 6 4 3 4 4 2 1 5 3 5 1 4 3 5 3 0 3 3 2 1 2 1 2 3 2 2 3 4 2 3 2 5 5 9 4 12 6 8 18 16 16 17
3 2 2 3 4 3 4 5 2 2 3 3 4 6 3 5 4 4 2 3 6 2 4 3 3 5 3 8 7 3 4 2 2 2 3 5 3 4 7 3 14 17 16 16 17
1 2 2 1 3 3 4 3 3 4 4 4 6 11 11 10 9 5 3 2 7 3 2 2 3 4 7 3 4 7 8 10 4 4 4 4 5 9 4 3 15 18 17 16 15
1 2 1 2 3 6 2 4 3 3 5 2 4 1 1 6 6 9 5 2 6 3 2 3 3 3 3 4 3 5 8 8 9 7 12 7 2 5 6 13 16 17 15 16 15
2 2 0 0 2 4 2 4 4 5 4 3 3 7 2 3 7 5 4 1 4 4 6 3 4 8 8 3 5 4 7 9 13 7 11 14 18 16 16 19 16 15 16 17 15
2 2 2 3 3 4 4 1 4 4 5 3 3 7 8 4 7 10 9 6 4 3 3 3 6 10 12 13 10 12 12 11 15 17 15 17 22 22 19 14 10 13 13 16 17
3 3 3 1 3 6 6 6 8 1 1 3 5 2 4 3 2 3 5 2 3 2 3 2 7 5 6 13 15 17 17 19 22 23 24 23 25 20 4 6 10 14 13 17 17
2 1 3 3 4 4 3 4 2 2 4 1 3 3 8 1 5 5 6 8 8 4 4 3 3 3 10 7 8 12 18 22 22 21 18 18 15 7 4 9 12 12 13 17 17
Wind_Direction
2 359 359 356 354 352 351 349 346 344 343 341 339 337 334 331 317 268 60 339 322 324 322 284 253 233 232 101 356 298 230 163 119 166 116 134 262 108 358 284 299 287 293 19 310
358 354 355 351 346 346 346 344 343 340 337 334 334 335 334 333 302 261 26 329 329 331 323 335 239 214 178 124 288 272 254 96 56 79 111 142 289 360 295 215 251 246 201 256 287
345 344 345 342 341 343 341 338 336 335 330 328 326 332 333 328 281 138 3 341 333 336 280 301 286 262 180 266 13 6 72 127 104 79 20 64 250 191 260 240 148 316 325 319 305
335 334 338 333 331 336 334 332 332 330 329 326 324 327 324 316 311 31 344 336 324 327 278 287 240 236 209 174 49 144 92 72 128 95 302 294 328 254 234 259 349 297 309 306 298
342 342 344 337 326 327 329 331 329 331 328 326 323 324 311 259 303 4 335 335 336 339 42 325 267 268 189 113 130 101 137 125 102 270 284 305 272 286 263 243 248 290 288 288 295
334 337 336 336 331 324 325 327 328 328 323 325 325 307 236 254 22 354 343 333 358 1 43 25 27 27 100 76 337 85 123 126 175 327 291 291 298 309 189 179 221 296 289 271 269
326 329 337 337 336 333 321 321 320 319 316 316 315 300 259 295 8 348 354 5 343 353 17 66 1 309 149 123 110 111 159 154 202 276 310 312 241 226 165 189 294 297 270 209 228
336 342 344 343 339 333 326 318 317 311 290 294 295 279 276 76 331 336 333 326 5 358 18 51 41 97 12 115 151 212 236 212 140 275 137 320 114 172 160 247 299 284 209 187 205
329 336 335 340 332 330 323 315 313 293 277 285 262 263 236 152 213 38 360 335 325 329 336 291 190 107 152 202 200 208 239 218 161 146 311 230 312 106 215 253 294 259 179 178 148
337 337 337 331 324 326 321 307 289 268 226 244 262 264 173 119 135 131 84 326 312 293 256 243 180 198 211 198 222 218 229 212 252 119 260 270 268 279 292 282 260 226 175 170 147
336 343 338 330 325 325 327 315 306 186 307 299 298 300 339 6 277 185 94 254 246 237 245 215 218 211 211 218 284 292 267 255 177 50 302 273 294 300 313 229 209 198 176 162 139
337 336 333 328 323 319 305 25 38 343 305 228 283 277 269 335 290 192 284 234 209 239 179 225 246 214 114 151 181 205 238 248 142 151 301 309 296 301 182 148 174 166 145 100 149
340 340 336 327 312 298 31 43 314 285 270 269 350 326 359 267 294 346 300 6 257 238 220 237 28 142 176 165 180 213 245 269 297 312 228 299 267 162 152 161 157 179 217 89 350
337 340 334 321 290 349 64 359 321 292 295 284 63 78 248 307 241 344 3 333 238 273 228 241 131 193 204 197 198 215 134 130 306 339 294 5 288 199 159 141 145 136 130 53 25
340 334 329 326 316 312 8 325 316 249 319 309 69 49 33 284 349 125 329 182 253 242 241 180 183 195 206 228 193 103 131 94 35 61 340 181 215 131 163 165 144 130 88 49 2
337 326 315 232 235 15 335 314 266 254 253 360 8 4 281 202 203 119 256 240 5 232 241 4 341 227 302 125 227 137 143 125 136 152 233 170 229 232 169 192 139 126 65 9 343
323 311 296 298 28 333 317 261 249 230 77 5 351 348 320 290 240 226 217 202 193 155 214 179 183 159 209 153 173 211 198 212 217 200 294 145 225 258 113 84 86 45 1 334 327
300 291 191 308 312 313 283 233 232 218 281 11 305 297 271 316 193 242 243 251 219 230 267 187 213 188 180 251 230 199 262 261 250 229 68 163 239 95 100 96 79 23 344 337 337
290 211 236 357 304 288 228 199 247 330 10 329 308 273 211 210 269 248 233 279 314 210 247 204 174 126 184 285 322 161 213 30 300 117 256 227 235 203 199 146 47 357 350 340 338
245 226 59 322 291 246 219 235 224 341 333 309 294 311 307 9 278 257 295 34 340 285 235 50 189 214 133 195 110 286 114 160 188 264 252 232 233 235 158 168 348 351 348 340 339
221 216 31 315 221 226 214 220 273 343 315 279 296 282 296 314 305 309 1 61 356 347 231 307 264 137 177 210 199 167 202 218 344 235 271 298 294 119 151 95 346 342 339 338 340
244 223 41 289 212 217 215 239 348 298 299 292 265 268 274 288 287 284 275 14 349 316 262 47 320 208 209 71 332 280 249 210 230 173 229 285 266 167 149 252 351 338 330 333 339
210 125 47 252 225 212 171 249 275 274 297 270 282 298 335 270 272 249 249 84 9 351 10 7 216 234 213 193 178 239 225 246 263 275 247 242 261 140 190 328 343 328 328 332 332
178 187 107 238 349 302 210 242 250 204 251 244 273 294 276 303 283 282 225 51 4 358 329 300 246 258 264 12 336 224 246 234 231 239 249 241 264 273 303 329 331 322 325 322 329
184 189 316 185 212 184 215 179 251 243 213 210 238 246 266 251 263 246 264 270 212 340 280 275 252 247 260 277 264 264 264 248 239 245 259 276 284 289 306 327 325 314 331 328 323
164 172 186 209 184 227 206 210 237 237 253 206 240 284 251 253 343 13 355 259 284 257 270 234 255 276 260 261 259 260 261 261 260 263 267 275 279 290 339 328 328 329 335 331 325
111 99 287 142 206 200 222 258 216 227 139 1 335 312 267 22 338 318 303 286 278 281 271 260 241 218 264 279 299 270 244 250 258 259 265 265 284 37 343 328 334 330 335 329 322